| time (UTC) | temp F | wind direction | speed MPH | gust MPH | rain 1hr in | rain 24hr in | rain mn in | humidity % | barometer mb |
| 20260503032017 | 63 | 17 | 0.0 | 3.0 | 0.00 | 0.00 | 0.00 | 62 | 1020.2 |
| 20260503031017 | 63 | 95 | 0.0 | 3.0 | 0.00 | 0.00 | 0.00 | 62 | 1020.1 |
| 20260503030017 | 64 | 103 | 0.0 | 2.0 | 0.00 | 0.00 | 0.00 | 61 | 1020.0 |
| 20260503025017 | 65 | 47 | 0.0 | 1.0 | 0.00 | 0.00 | 0.00 | 59 | 1019.9 |
| 20260503024037 | 66 | 69 | 0.0 | 1.0 | 0.00 | 0.00 | 0.00 | 56 | 1019.8 |
| 20260503023017 | 66 | 20 | 0.0 | 1.0 | 0.00 | 0.00 | 0.00 | 54 | 1019.7 |
| 20260503022018 | 67 | 1 | 0.0 | 1.0 | 0.00 | 0.00 | 0.00 | 53 | 1019.6 |
| 20260503021018 | 67 | 185 | 0.0 | 0.0 | 0.00 | 0.00 | 0.00 | 53 | 1019.5 |
| 20260503020018 | 67 | 334 | 0.0 | 1.0 | 0.00 | 0.00 | 0.00 | 53 | 1019.5 |
| 20260503015018 | 68 | 50 | 0.0 | 1.0 | 0.00 | 0.00 | 0.00 | 54 | 1019.4 |
| 20260503014015 | 69 | 29 | 0.0 | 1.0 | 0.00 | 0.00 | 0.00 | 51 | 1019.4 |
| 20260503013016 | 70 | 63 | 0.0 | 1.0 | 0.00 | 0.00 | 0.00 | 48 | 1019.3 |
| 20260503012016 | 72 | 333 | 0.0 | 0.0 | 0.00 | 0.00 | 0.00 | 46 | 1019.2 |
| 20260503011016 | 73 | 80 | 0.0 | 1.0 | 0.00 | 0.00 | 0.00 | 43 | 1019.2 |
| 20260503010016 | 75 | 193 | 0.0 | 1.0 | 0.00 | 0.00 | 0.00 | 40 | 1019.1 |
| 20260503005017 | 77 | 267 | 0.0 | 1.0 | 0.00 | 0.00 | 0.00 | 37 | 1019.1 |
| 20260503004016 | 79 | 246 | 0.0 | 2.0 | 0.00 | 0.00 | 0.00 | 34 | 1019.0 |
| 20260503003017 | 80 | 47 | 1.0 | 2.0 | 0.00 | 0.00 | 0.00 | 31 | 1019.0 |
| 20260503002018 | 79 | 79 | 1.0 | 2.0 | 0.00 | 0.00 | 0.00 | 30 | 1019.0 |
| 20260503001018 | 79 | 204 | 1.0 | 2.0 | 0.00 | 0.00 | 0.00 | 29 | 1019.0 |
| 20260503000038 | 79 | 50 | 1.0 | 2.0 | 0.00 | 0.00 | 0.00 | 30 | 1019.0 |
| 20260502235018 | 79 | 220 | 1.0 | 2.0 | 0.00 | 0.00 | 0.00 | 29 | 1019.0 |
| 20260502234018 | 79 | 49 | 1.0 | 2.0 | 0.00 | 0.00 | 0.00 | 30 | 1019.0 |
| 20260502233018 | 80 | 199 | 1.0 | 3.0 | 0.00 | 0.00 | 0.00 | 31 | 1019.1 |
| 20260502232015 | 81 | 45 | 1.0 | 3.0 | 0.00 | 0.00 | 0.00 | 29 | 1019.1 |
| 20260502231015 | 81 | 178 | 2.0 | 4.0 | 0.00 | 0.00 | 0.00 | 27 | 1019.1 |
| 20260502230016 | 80 | 59 | 1.0 | 2.0 | 0.00 | 0.00 | 0.00 | 28 | 1019.1 |
| 20260502225016 | 79 | 89 | 2.0 | 3.0 | 0.00 | 0.00 | 0.00 | 29 | 1019.1 |
| 20260502224016 | 79 | 46 | 1.0 | 3.0 | 0.00 | 0.00 | 0.00 | 29 | 1019.2 |
| 20260502223016 | 79 | 48 | 1.0 | 3.0 | 0.00 | 0.00 | 0.00 | 30 | 1019.2 |
| 20260502222016 | 80 | 111 | 2.0 | 7.0 | 0.00 | 0.00 | 0.00 | 28 | 1019.3 |
| 20260502221016 | 80 | 217 | 2.0 | 3.0 | 0.00 | 0.00 | 0.00 | 27 | 1019.4 |
| 20260502220017 | 81 | 54 | 1.0 | 4.0 | 0.00 | 0.00 | 0.00 | 27 | 1019.4 |
| 20260502215017 | 80 | 49 | 2.0 | 5.0 | 0.00 | 0.00 | 0.00 | 28 | 1019.5 |
| 20260502214017 | 80 | 49 | 1.0 | 3.0 | 0.00 | 0.00 | 0.00 | 29 | 1019.6 |
| 20260502213017 | 80 | 47 | 1.0 | 3.0 | 0.00 | 0.00 | 0.00 | 29 | 1019.7 |
| 20260502212017 | 79 | 76 | 2.0 | 4.0 | 0.00 | 0.00 | 0.00 | 31 | 1019.8 |
| 20260502211017 | 78 | 192 | 2.0 | 4.0 | 0.00 | 0.00 | 0.00 | 31 | 1019.9 |
| 20260502210018 | 77 | 225 | 5.0 | 10.0 | 0.00 | 0.00 | 0.00 | 32 | 1020.0 |
| 20260502205018 | 77 | 226 | 2.0 | 4.0 | 0.00 | 0.00 | 0.00 | 30 | 1020.2 |
| 20260502204018 | 79 | 52 | 2.0 | 3.0 | 0.00 | 0.00 | 0.00 | 31 | 1020.3 |
| 20260502203039 | 79 | 49 | 1.0 | 4.0 | 0.00 | 0.00 | 0.00 | 30 | 1020.3 |
| 20260502202035 | 79 | 210 | 2.0 | 7.0 | 0.00 | 0.00 | 0.00 | 30 | 1020.3 |
| 20260502201035 | 79 | 57 | 2.0 | 5.0 | 0.00 | 0.00 | 0.00 | 29 | 1020.5 |
| 20260502200016 | 78 | 58 | 2.0 | 4.0 | 0.00 | 0.00 | 0.00 | 32 | 1020.6 |
| 20260502195016 | 78 | 214 | 2.0 | 4.0 | 0.00 | 0.00 | 0.00 | 30 | 1020.6 |
| 20260502194016 | 77 | 171 | 2.0 | 4.0 | 0.00 | 0.00 | 0.00 | 31 | 1020.7 |
| 20260502193016 | 77 | 46 | 1.0 | 3.0 | 0.00 | 0.00 | 0.00 | 32 | 1020.8 |
| 20260502192037 | 78 | 48 | 2.0 | 3.0 | 0.00 | 0.00 | 0.00 | 31 | 1020.9 |
| 20260502191037 | 78 | 73 | 2.0 | 4.0 | 0.00 | 0.00 | 0.00 | 31 | 1021.0 |
| 20260502190040 | 77 | 219 | 2.0 | 4.0 | 0.00 | 0.00 | 0.00 | 32 | 1021.0 |
| 20260502185041 | 76 | 342 | 3.0 | 8.0 | 0.00 | 0.00 | 0.00 | 32 | 1021.1 |
| 20260502184040 | 75 | 232 | 2.0 | 7.0 | 0.00 | 0.00 | 0.00 | 34 | 1021.3 |
| 20260502183020 | 76 | 278 | 3.0 | 7.0 | 0.00 | 0.00 | 0.00 | 34 | 1021.5 |
| 20260502182101 | 77 | 229 | 1.0 | 7.0 | 0.00 | 0.00 | 0.00 | 33 | 1021.5 |
| 20260502181020 | 75 | 269 | 2.0 | 5.0 | 0.00 | 0.00 | 0.00 | 32 | 1021.7 |
| 20260502164016 | 73 | 289 | 2.0 | 5.0 | 0.00 | 0.00 | 0.00 | 42 | 1022.5 |
| 20260502163057 | 72 | 22 | 1.0 | 6.0 | 0.00 | 0.00 | 0.00 | 42 | 1022.5 |
| 20260502162016 | 71 | 295 | 1.0 | 5.0 | 0.00 | 0.00 | 0.00 | 46 | 1022.5 |
| 20260502161017 | 71 | 318 | 1.0 | 5.0 | 0.00 | 0.00 | 0.00 | 46 | 1022.4 |
| 20260502152017 | 68 | 14 | 0.0 | 2.0 | 0.00 | 0.00 | 0.00 | 54 | 1022.3 |
| 20260502151017 | 66 | 349 | 1.0 | 3.0 | 0.00 | 0.00 | 0.00 | 61 | 1022.3 |
| 20260502123017 | 48 | 15 | 0.0 | 0.0 | 0.00 | 0.00 | 0.00 | 97 | 1021.4 |
| 20260502122017 | 48 | 76 | 0.0 | 1.0 | 0.00 | 0.00 | 0.00 | 97 | 1021.3 |
| 20260502121017 | 47 | 86 | 0.0 | 0.0 | 0.00 | 0.00 | 0.00 | 97 | 1021.1 |
| 20260502115038 | 47 | 21 | 0.0 | 0.0 | 0.00 | 0.00 | 0.00 | 96 | 1020.7 |
| 20260502114018 | 47 | 0.0 | 0.0 | 0.00 | 0.00 | 0.00 | 96 | 1020.5 | |
| 20260502113018 | 48 | 52 | 0.0 | 1.0 | 0.00 | 0.00 | 0.00 | 96 | 1020.3 |
| 20260502112018 | 48 | 24 | 0.0 | 0.0 | 0.00 | 0.00 | 0.00 | 96 | 1020.1 |
| 20260502111038 | 48 | 36 | 0.0 | 1.0 | 0.00 | 0.00 | 0.00 | 96 | 1019.9 |
| 20260502110038 | 47 | 43 | 0.0 | 0.0 | 0.00 | 0.00 | 0.00 | 96 | 1019.9 |
| 20260502105019 | 48 | 2 | 0.0 | 0.0 | 0.00 | 0.00 | 0.00 | 96 | 1019.9 |
| 20260502104016 | 48 | 18 | 0.0 | 0.0 | 0.00 | 0.00 | 0.00 | 96 | 1019.8 |
| 20260502103036 | 48 | 66 | 0.0 | 1.0 | 0.00 | 0.00 | 0.00 | 96 | 1019.6 |
| 20260502102016 | 48 | 62 | 1.0 | 2.0 | 0.00 | 0.00 | 0.00 | 96 | 1019.7 |
| 20260502101017 | 48 | 69 | 0.0 | 1.0 | 0.00 | 0.00 | 0.00 | 96 | 1019.9 |
| 20260502091017 | 48 | 74 | 0.0 | 1.0 | 0.00 | 0.00 | 0.00 | 95 | 1019.4 |
| 20260502071017 | 51 | 0.0 | 0.0 | 0.00 | 0.00 | 0.00 | 92 | 1019.6 | |
| 20260502070017 | 51 | 41 | 0.0 | 1.0 | 0.00 | 0.00 | 0.00 | 91 | 1019.6 |
| 20260502065017 | 51 | 47 | 0.0 | 1.0 | 0.00 | 0.00 | 0.00 | 91 | 1019.6 |
| 20260502064037 | 52 | 34 | 0.0 | 1.0 | 0.00 | 0.00 | 0.00 | 90 | 1019.6 |
| 20260502063037 | 52 | 43 | 0.0 | 1.0 | 0.00 | 0.00 | 0.00 | 90 | 1019.5 |
| 20260502062017 | 52 | 53 | 0.0 | 1.0 | 0.00 | 0.00 | 0.00 | 89 | 1019.6 |
| 20260502061017 | 52 | 56 | 0.0 | 1.0 | 0.00 | 0.00 | 0.00 | 89 | 1019.7 |
| 20260502060017 | 52 | 44 | 0.0 | 1.0 | 0.00 | 0.00 | 0.00 | 88 | 1019.7 |
| 20260502055018 | 53 | 72 | 0.0 | 1.0 | 0.00 | 0.00 | 0.00 | 87 | 1019.8 |
| 20260502054018 | 53 | 67 | 0.0 | 1.0 | 0.00 | 0.00 | 0.00 | 86 | 1019.8 |
| 20260502053018 | 53 | 313 | 0.0 | 1.0 | 0.00 | 0.00 | 0.00 | 86 | 1019.8 |
| 20260502052018 | 53 | 0.0 | 0.0 | 0.00 | 0.00 | 0.00 | 85 | 1019.6 | |
| 20260502051015 | 54 | 26 | 0.0 | 1.0 | 0.00 | 0.00 | 0.00 | 84 | 1019.6 |
| 20260502050015 | 54 | 16 | 0.0 | 0.0 | 0.00 | 0.00 | 0.00 | 82 | 1019.6 |
| 20260502045016 | 55 | 75 | 0.0 | 1.0 | 0.00 | 0.00 | 0.00 | 80 | 1019.6 |
| 20260502044016 | 55 | 332 | 0.0 | 1.0 | 0.00 | 0.00 | 0.00 | 80 | 1019.6 |
| 20260502043016 | 55 | 302 | 0.0 | 2.0 | 0.00 | 0.00 | 0.00 | 79 | 1019.5 |
| 20260502042016 | 56 | 17 | 0.0 | 0.0 | 0.00 | 0.00 | 0.00 | 78 | 1019.5 |
| 20260502041037 | 57 | 33 | 0.0 | 1.0 | 0.00 | 0.00 | 0.00 | 76 | 1019.5 |
| 20260502040036 | 57 | 58 | 0.0 | 2.0 | 0.00 | 0.00 | 0.00 | 75 | 1019.5 |
| 20260502035037 | 57 | 329 | 0.0 | 2.0 | 0.00 | 0.00 | 0.00 | 74 | 1019.4 |
| 20260502034017 | 57 | 53 | 0.0 | 1.0 | 0.00 | 0.00 | 0.00 | 73 | 1019.2 |
| 20260502033017 | 58 | 44 | 0.0 | 1.0 | 0.00 | 0.00 | 0.00 | 72 | 1019.2 |